This is the latest recevied weather packets stored in our database for station/object UR7D-12. If no packets are shown the sender has not sent any weather packets the latest 1 day(s).
| Time | Temp. | Humidity | Pressure | Rain* | Wind** | Luminosity | Snow |
|---|---|---|---|---|---|---|---|
| 1778077677 | 25° C | 42% | 985.6 hPa | 0 mm | - | - | - |
| 1778076476 | 24.44° C | 42% | 985.6 hPa | 0 mm | - | - | - |
| 1778074674 | 25° C | 43% | 985.8 hPa | 0 mm | - | - | - |
| 1778074374 | 24.44° C | 43% | 985.8 hPa | 0 mm | - | - | - |
| 1778072274 | 24.44° C | 43% | 986 hPa | 0 mm | - | - | - |
| 1778071371 | 23.89° C | 43% | 986.3 hPa | 0 mm | - | - | - |
| 1778071071 | 24.44° C | 43% | 986.3 hPa | 0 mm | - | - | - |
| 1778068068 | 23.33° C | 44% | 986.7 hPa | 0 mm | - | - | - |
| 1778065966 | 23.33° C | 44% | 987 hPa | 0 mm | - | - | - |
| 1778062361 | 23.33° C | 45% | 987.5 hPa | 0 mm | - | - | - |
| 1778062062 | 22.78° C | 46% | 987.4 hPa | 0 mm | - | - | - |
| 1778061762 | 22.78° C | 46% | 987.6 hPa | 0 mm | - | - | - |
| 1778061160 | 22.78° C | 48% | 987.3 hPa | 0 mm | - | - | - |
| 1778059959 | 21.67° C | 53% | 987.6 hPa | 0 mm | - | - | - |
| 1778059660 | 21.67° C | 53% | 987.8 hPa | 0 mm | - | - | - |
| 1778059358 | 21.11° C | 51% | 987.7 hPa | 0 mm | - | - | - |
| 1778059058 | 21.11° C | 49% | 987.9 hPa | 0 mm | - | - | - |
| 1778057857 | 21.11° C | 53% | 987.6 hPa | 0 mm | - | - | - |
| 1778057258 | 21.11° C | 53% | 987.7 hPa | 0 mm | - | - | - |
| 1778056956 | 21.11° C | 52% | 987.5 hPa | 0 mm | - | - | - |
| 1778056656 | 21.11° C | 52% | 987.7 hPa | 0 mm | - | - | - |
| 1778056055 | 20.56° C | 54% | 987.6 hPa | 0 mm | - | - | - |
| 1778055755 | 20.56° C | 53% | 987.6 hPa | 0 mm | - | - | - |
| 1778054854 | 20.56° C | 53% | 987.4 hPa | 0 mm | - | - | - |
| 1778054555 | 20.56° C | 55% | 987.3 hPa | 0 mm | - | - | - |
* Rain latest hour (hover to see other rain measurements)
** Current wind speed in m/s (hover to see current wind gust speed)